Regional Weather Roundup
Issued by NWS

Home | Current Version | Previous Version | Text Only | Print | Product List | Glossary Off
Versions: 1 2 3 4 5 6 7 8 9 10 11 12 13 14 15 16 17 18 19 20 21 22 23 24 25 26 27 28 29 30 31 32 33 34 35 36 37 38 39 40 41 42 43 44 45 46 47 48 49 50

000
ASUS45 KBOU 262007
RWRCO

WEATHER ROUNDUP FOR COLORADO
NATIONAL WEATHER SERVICE DENVER/BOULDER CO
100 PM MST WED NOV 26 2014

NOTE: "FAIR" INDICATES FEW OR NO CLOUDS BELOW 12000 FEET WITH NO
SIGNIFICANT WEATHER AND/OR OBSTRUCTIONS TO VISIBILITY.

COZ001>005-013-030-031-262100-
...NORTHWEST COLORADO...

CITY           SKY/WX    TMP DP  RH WIND       PRES   REMARKS
CRAIG          SUNNY     49  30  48 W7        30.30F
HAYDEN         PTSUNNY   39  28  65 SW6       30.31S
MEEKER         SUNNY     45  29  53 CALM      30.34F
MOUNT WERNER   NOT AVBL
STEAMBOAT SPGS CLOUDY    37  31  79 SE7       30.31F
WALDEN         CLOUDY    36  27  69 SW22      30.25F
$$

COZ006>008-011-262100-
...WEST CENTRAL VALLEYS...

CITY           SKY/WX    TMP DP  RH WIND       PRES   REMARKS
GRAND JUNCTION SUNNY     48  21  34 NW5       30.37F
MONTROSE       SUNNY     53  26  35 CALM      30.37F
EAGLE          MOSUNNY   46  28  49 W21       30.35F
RIFLE          SUNNY     39  26  59 CALM      30.38F
DELTA          SUNNY     53  25  34 SW3       30.37F
NUCLA          SUNNY     52  27  37 NW5       30.42F
$$

COZ017>023-064>068-262100-
...SOUTHWEST COLORADO...

CITY           SKY/WX    TMP DP  RH WIND       PRES   REMARKS
DURANGO        SUNNY     48  20  32 E7        30.34F
CORTEZ         SUNNY     57  24  28 N16G26    30.36F
PAGOSA SPRINGS SUNNY     44  16  33 CALM      30.36F
TELLURIDE      SUNNY     40  25  55 W13       30.45S
WOLF CREEK PAS SUNNY     32  12  43 MISG      30.45R
$$

COZ009-010-012-014-032>034-037-058>063-262100-
...CENTRAL COLORADO...

CITY           SKY/WX    TMP DP  RH WIND       PRES   REMARKS
ASPEN          MOSUNNY   42  25  50 VRB3      30.36F
BUENA VISTA    MOSUNNY   50  20  31 NW17G32   30.22S
COPPER MTN     CLOUDY    27  21  80 W33G45    30.36R WCI   9
BERTHOUD PASS  NOT AVBL
COTTONWOOD PAS MOSUNNY   41  19  42 W26G40    30.26R
GUNNISON       SUNNY     43  27  52 W12       30.37F
KREMMLING      CLOUDY    41  27  56 W16G23    30.32S
LEADVILLE      CLOUDY    31  22  69 NW18G25   30.35S WCI  19
MONARCH PASS   CLOUDY    23  21  93 MISG      30.43S
SALIDA         MOSUNNY   52  22  30 W25G37    30.28F
SUNLIGHT       SUNNY    N/A N/A N/A CALM      30.43S
WILKERSON PASS MOSUNNY   32  18  55 NW13G33   30.28R WCI  22
$$

COZ069>075-262100-
...SAN LUIS VALLEY/SANGRE DE CRISTO MOUNTAINS...

CITY           SKY/WX    TMP DP  RH WIND       PRES   REMARKS
ALAMOSA        SUNNY     48  19  31 CALM      30.30F
LA VETA PASS   SUNNY     39  21  48 SW8G20    30.30R
SAGUACHE       NOT AVBL
$$

COZ035-036-038>040-262100-
...NORTHERN COLORADO FRONT RANGE...

CITY           SKY/WX    TMP DP  RH WIND       PRES   REMARKS
DENVER INTL AP MOSUNNY   38  23  55 E13       30.15F
DMNS CITY PARK   N/A     43  23  46 NE7       30.15S
AURORA         MOSUNNY   42  24  50 NE8       30.16S
FRONT RANGE AP NOT AVBL
ERIE MUNI ARPT SUNNY     40  23  50 E5        30.17S
BOULDER MUN AP SUNNY     39  25  56 SE6       30.17R
CENTENNIAL     MOSUNNY   43  24  47 VRB5      30.15F
BROOMFIELD     NOT AVBL
FORT COLLINS   SUNNY     37  21  52 S8        30.17F
LONGMONT       SUNNY     44  23  44 S3        30.18F
$$

COZ041-046-047-076>085-087-088-262100-
...PIKES PEAK/PALMER DIVIDE AND SOUTHERN FOOTHILLS...

CITY           SKY/WX    TMP DP  RH WIND       PRES   REMARKS
COLO. SPRINGS  MOSUNNY   37  26  64 SW3       30.20S
A. F. ACADEMY  SUNNY     37  25  62 S6        30.17F
ELLICOTT       NOT AVBL
FALCON         NOT AVBL
FORT CARSON    MOSUNNY   36  26  66 SE6       30.19R
LIMON          SUNNY     36  23  59 E7        30.19F
MONUMENT HILL  SUNNY     43  27  52 N8        30.13F
TRINIDAD       SUNNY     41  30  65 S8        30.18F
$$

COZ042>045-048>051-090-091-262100-
...NORTHEAST COLORADO...

CITY           SKY/WX    TMP DP  RH WIND       PRES   REMARKS
GREELEY ARPT   SUNNY     37  21  52 SE6       30.18F
AKRON          CLOUDY    29  24  82 S8        30.18F WCI  21
BURLINGTON     PTSUNNY   33  25  72 NW7       30.24F WCI  27
WRAY           FLURRIES  34  30  85 CALM      30.24F
STERLING       CLOUDY    34  30  86 CALM      30.23R
HOLYOKE        MOSUNNY   34  30  86 NW3       30.26R
FORT MORGAN    CLOUDY    33  23  67 S7        30.19F WCI  27
$$

COZ086-089-092>099-262100-
...SOUTHEAST COLORADO...

CITY           SKY/WX    TMP DP  RH WIND       PRES   REMARKS
PUEBLO         SUNNY     42  26  53 E12       30.20S
LA JUNTA       SUNNY     43  23  45 E8        30.22F
LAMAR          SUNNY     45  22  40 N8        30.23F
SPRINGFIELD      N/A     43  22  43 NW6       30.24R
$$



USA.gov is the U.S. government's official web portal to all federal, state and local government web resources and services.